Location: Christchurch
(43.5000°S, 172.6000°E)
Time: 18:35:49
(UTC+12:00)

ISS - Visible Passes

Search period start: 13 April 2024 00:00
Search period end: 23 April 2024 00:00
Orbit: 413 x 419 km, 51.6° (Epoch: 12 April)

Date Brightness Start Highest point End Pass type
(mag) Time Alt. Az. Time Alt. Az. Time Alt. Az.
13 Apr -0.9 20:21:02 10° NW 20:21:28 13° NW 20:21:28 13° NW visible
14 Apr -2.8 19:32:47 10° NNW 19:35:28 35° NNE 19:35:28 35° NNE visible
15 Apr -2.3 18:44:49 10° N 18:47:33 23° NE 18:49:19 15° E visible
15 Apr -1.4 20:20:42 10° WNW 20:22:14 24° W 20:22:14 24° W visible
16 Apr -3.8 19:32:02 10° WNW 19:35:28 85° SW 19:35:55 65° SE visible
17 Apr -3.6 18:43:31 10° NW 18:46:53 59° NE 18:49:29 16° ESE visible
17 Apr -1.2 20:20:43 10° W 20:22:23 22° WSW 20:22:23 22° WSW visible
18 Apr -2.7 19:31:47 10° W 19:35:02 40° SSW 19:35:49 34° SSE visible
19 Apr -3.3 18:42:55 10° WNW 18:46:18 58° SSW 18:49:10 14° SE visible
19 Apr -0.9 20:20:46 10° WSW 20:22:04 17° SW 20:22:04 17° SW visible
20 Apr -2.1 19:31:44 10° WSW 19:34:40 26° SSW 19:35:19 24° S visible
21 Apr -2.3 18:42:40 10° W 18:45:48 32° SSW 18:48:31 12° SE visible
21 Apr -0.7 20:20:35 10° SW 20:21:24 14° SW 20:21:24 14° SW visible
22 Apr -1.8 19:31:36 10° SW 19:34:18 21° S 19:34:33 21° S visible
